Martinsburg, WV

1:43 PM EST on February 20, 2018 (GMT -0500)
Eastern W Va Regional-Shepherd

Weather History for KMRB - March, 2011

Change the Weather History Date:

Tuesday, March 1, 2011

  Actual Average Record
Temperature  
Mean Temperature 37 °F 37 °F  
Max Temperature 46 °F 47 °F 79 °F (1972)
Min Temperature 27 °F 27 °F 4 °F (1934)
Degree Days  
Heating Degree Days 28 28  
Month to date heating degree days 28 28  
Since 1 July heating degree days 3945 3984  
Cooling Degree Days 0 0  
Month to date cooling degree days 0 0  
Year to date cooling degree days 0 0  
Moisture  
Dew Point 18 °F    
Average Humidity 49    
Maximum Humidity 69    
Minimum Humidity 28    
Precipitation  
Precipitation 0.00 in 0.09 in 1.34 in (1954)
Month to date precipitation 0.00 0.09  
Year to date precipitation 3.27 4.87  
Sea Level Pressure  
Sea Level Pressure 30.26 in    
Wind  
Wind Speed 6 mph (North)    
Max Wind Speed 21 mph    
Max Gust Speed 29 mph    
Visibility 10 miles    
Events      
T = Trace of Precipitation, MM = Missing Value Source: NWS Daily Summary

Daily Weather History Graph

Daily Weather History Graph

Search for Another Location

Airport or City:

Trip Planner

Search our weather history database for the weather conditions in past years. The results will help you decide how hot, cold, wet, or windy it might be!

Date:

Astronomy

Mar. 01, 2011 Rise Set
Actual Time 6:45 AM EST 6:03 PM EST
Civil Twilight 6:18 AM EST 6:30 PM EST
Nautical Twilight 5:47 AM EST 7:02 PM EST
Astronomical Twilight 5:16 AM EST 7:33 PM EST
Moon 4:51 AM EST (3/1) 3:18 PM EST (3/1)
Length of Visible Light 12h 12m
Length of Day
11h 18m
Waning Crescent, 9% of the Moon is Illuminated
Mar 1
Waning Crescent
Mar 4
New
Mar 12
First Quarter
Mar 19
Full
Mar 26
Last Quarter

Hourly Weather History & Observations

Time (EST) Temp. Windchill Dew Point Humidity Pressure Visibility Wind Dir Wind Speed Gust Speed Precip Events Conditions
12:53 AM 36.0 °F 26.7 °F 21.0 °F 55% 30.07 in 10.0 mi NNW 15.0 mph 23.0 mph N/A   Clear
1:53 AM 34.0 °F 26.6 °F 19.0 °F 54% 30.09 in 10.0 mi NNW 9.2 mph - N/A   Clear
2:53 AM 33.1 °F 25.5 °F 18.0 °F 54% 30.12 in 10.0 mi NNW 9.2 mph - N/A   Clear
3:53 AM 32.0 °F 26.4 °F 18.0 °F 56% 30.15 in 10.0 mi NNE 5.8 mph - N/A   Clear
4:53 AM 30.9 °F 22.2 °F 17.1 °F 57% 30.19 in 10.0 mi NNW 10.4 mph - N/A   Clear
5:53 AM 30.0 °F 23.2 °F 18.0 °F 61% 30.24 in 10.0 mi North 6.9 mph - N/A   Clear
6:53 AM 30.0 °F 23.2 °F 17.1 °F 59% 30.27 in 10.0 mi North 6.9 mph - N/A   Clear
7:53 AM 30.9 °F 21.7 °F 17.1 °F 57% 30.30 in 10.0 mi NNW 11.5 mph 17.3 mph N/A   Clear
8:53 AM 32.0 °F 22.5 °F 18.0 °F 56% 30.33 in 10.0 mi North 12.7 mph - N/A   Clear
9:53 AM 34.0 °F 24.2 °F 18.0 °F 52% 30.34 in 10.0 mi NNW 15.0 mph 28.8 mph N/A   Clear
10:53 AM 36.0 °F 31.1 °F 19.0 °F 50% 30.35 in 10.0 mi Variable 5.8 mph - N/A   Clear
11:53 AM 39.0 °F 34.0 °F 19.0 °F 45% 30.35 in 10.0 mi NNW 6.9 mph - N/A   Clear
12:53 PM 42.8 °F 39.3 °F 19.4 °F 39% 30.31 in 10.0 mi NNE 5.8 mph - N/A   Clear
1:53 PM 42.1 °F 39.2 °F 19.0 °F 40% 30.31 in 10.0 mi SSE 4.6 mph - N/A   Clear
2:53 PM 44.1 °F - 16.0 °F 32% 30.31 in 10.0 mi Calm Calm - N/A   Clear
3:53 PM 46.0 °F 44.8 °F 16.0 °F 30% 30.29 in 10.0 mi ENE 3.5 mph - N/A   Clear
4:53 PM 46.0 °F 43.1 °F 17.1 °F 31% 30.30 in 10.0 mi SE 5.8 mph - N/A   Clear
5:53 PM 42.1 °F 39.2 °F 19.0 °F 40% 30.30 in 10.0 mi SE 4.6 mph - N/A   Clear
6:53 PM 37.9 °F 35.5 °F 19.0 °F 47% 30.30 in 10.0 mi SSE 3.5 mph - N/A   Clear
7:53 PM 36.0 °F - 19.0 °F 50% 30.30 in 10.0 mi Calm Calm - N/A   Clear
8:53 PM 30.9 °F - 19.9 °F 64% 30.29 in 10.0 mi Calm Calm - N/A   Clear
9:53 PM 30.0 °F - 19.9 °F 66% 30.27 in 10.0 mi Calm Calm - N/A   Clear
10:53 PM 28.4 °F - 19.4 °F 69% 30.24 in 10.0 mi Calm Calm - N/A   Clear
11:53 PM 28.0 °F - 19.9 °F 72% 30.23 in 10.0 mi Calm Calm - N/A   Clear